Location: ?????
(32.7281°N, 34.9563°E)
Time: 12:34:17
(UTC+00:00)

Cosmos 1980 Rocket - Pass Details

Date: 29 October 2020
Orbit: 831 x 848 km, 71.0° (Epoch: 27 November)

Event Time Altitude Azimuth Distance (km) Brightness Sun altitude
Rises 17:28:40 0° 234° (SW) 3,380 6.0 -33.5°
Reaches altitude 10° 17:31:39 10° 249° (WSW) 2,446 5.3 -34.1°
Maximum altitude 17:35:57 22° 300° (WNW) 1,735 4.3 -35.0°
Enters shadow 17:39:30 13° 345° (NNW) 2,243 4.6 -35.8°
